,,,PA_Meas_PMT16A,,PR_Meas_QMR101_102,,RH_Meas_QMH101,,SR_Meas_QMS101,,TA_Meas_QMH101,,GenWind,,GenWind,
date,time,status,PA,status,PR,status,RH,status,SR,status,TA,status,DirAvg,status,SpdAvg,
2012-07-29, 00:00:04,VALID,999.473,VALID,0,VALID,58.275,VALID,0,VALID,26.8227,VALID,200,VALID,3.76328,
2012-07-29, 00:01:04,VALID,999.513,VALID,0,VALID,58.3819,VALID,0,VALID,26.8032,VALID,178,VALID,3.70898,
2012-07-29, 00:02:04,VALID,999.45,VALID,0,VALID,57.741,VALID,0,VALID,26.9008,VALID,194,VALID,7.05625,
2012-07-29, 00:03:04,VALID,999.484,VALID,0,VALID,57.7181,VALID,0,VALID,26.9789,VALID,202,VALID,4.50977,
2012-07-29, 00:04:04,VALID,999.495,VALID,0,VALID,57.6342,VALID,0,VALID,26.9769,VALID,187,VALID,5.11094,
2012-07-29, 00:05:04,VALID,999.466,VALID,0,VALID,57.4739,VALID,0,VALID,27.0571,VALID,184,VALID,6.38789,
2012-07-29, 00:06:04,VALID,999.488,VALID,0,VALID,57.5121,VALID,0,VALID,27.0571,VALID,185,VALID,5.56016,
2012-07-29, 00:07:04,VALID,999.518,VALID,0,VALID,57.8401,VALID,0,VALID,27.018,VALID,195,VALID,4.36133,
2012-07-29, 00:08:04,VALID,999.514,VALID,0,VALID,57.9775,VALID,0,VALID,26.9985,VALID,190,VALID,3.60859,
2012-07-29, 00:09:04,VALID,999.489,VALID,0,VALID,58.0309,VALID,0,VALID,26.9789,VALID,188,VALID,3.36719,
2012-07-29, 00:10:04,VALID,999.507,VALID,0,VALID,58.3284,VALID,0,VALID,26.9378,VALID,200,VALID,4.64609,
2012-07-29, 00:11:04,VALID,999.495,VALID,0,VALID,58.5192,VALID,0,VALID,26.9008,VALID,194,VALID,2.14219,
2012-07-29, 00:12:04,VALID,999.441,VALID,0,VALID,58.5192,VALID,0,VALID,26.8813,VALID,207,VALID,2.72539,
2012-07-29, 00:13:04,VALID,999.453,VALID,0,VALID,58.6031,VALID,0,VALID,26.8422,VALID,202,VALID,3.9707,
2012-07-29, 00:14:04,VALID,999.516,VALID,0,VALID,58.8625,VALID,0,VALID,26.8011,VALID,209,VALID,2.325,
2012-07-29, 00:15:04,VALID,999.529,VALID,0,VALID,59.1677,VALID,0,VALID,26.7446,VALID,199,VALID,3.67031,
2012-07-29, 00:16:04,VALID,999.525,VALID,0,VALID,58.832,VALID,0,VALID,26.7816,VALID,200,VALID,4.16953,
2012-07-29, 00:17:04,VALID,999.543,VALID,0,VALID,58.832,VALID,0,VALID,26.8207,VALID,190,VALID,3.66719,
2012-07-29, 00:18:04,VALID,999.527,VALID,0,VALID,58.5421,VALID,0,VALID,26.8813,VALID,194,VALID,4.30195,
2012-07-29, 00:19:04,VALID,999.53,VALID,0,VALID,58.214,VALID,0.104696,VALID,26.8597,VALID,189,VALID,5.18047,
2012-07-29, 00:20:04,VALID,999.488,VALID,0,VALID,58.1682,VALID,0,VALID,26.9183,VALID,178,VALID,4.28398,
2012-07-29, 00:21:04,VALID,999.529,VALID,0,VALID,58.3742,VALID,0,VALID,26.9204,VALID,179,VALID,4.44688,
2012-07-29, 00:22:04,VALID,999.53,VALID,0,VALID,58.5497,VALID,0,VALID,26.9204,VALID,176,VALID,4.39375,
2012-07-29, 00:23:04,VALID,999.552,VALID,0,VALID,58.5879,VALID,0,VALID,26.8402,VALID,177,VALID,4.58945,
2012-07-29, 00:24:04,VALID,999.499,VALID,0,VALID,57.9622,VALID,0,VALID,26.9008,VALID,174,VALID,4.92891,
2012-07-29, 00:25:04,VALID,999.517,VALID,0,VALID,57.039,VALID,0,VALID,26.9985,VALID,180,VALID,4.76836,
2012-07-29, 00:26:04,VALID,999.497,VALID,0,VALID,57.6494,VALID,0,VALID,26.9769,VALID,181,VALID,5.03984,
2012-07-29, 00:27:04,VALID,999.456,VALID,0,VALID,58.0919,VALID,0,VALID,26.9399,VALID,167,VALID,4.72539,
2012-07-29, 00:28:04,VALID,999.528,VALID,0,VALID,58.1453,VALID,0,VALID,26.8402,VALID,181,VALID,4.92969,
2012-07-29, 00:29:04,VALID,999.474,VALID,0,VALID,57.9317,VALID,0,VALID,26.9008,VALID,184,VALID,4.49687,
2012-07-29, 00:30:04,VALID,999.496,VALID,0,VALID,57.741,VALID,0,VALID,26.9789,VALID,191,VALID,5.89531,
2012-07-29, 00:31:04,VALID,999.482,VALID,0,VALID,57.7104,VALID,0,VALID,26.9789,VALID,183,VALID,4.09844,
2012-07-29, 00:32:04,VALID,999.523,VALID,0,VALID,57.863,VALID,0.104696,VALID,27.018,VALID,180,VALID,5.39844,
2012-07-29, 00:33:04,VALID,999.508,VALID,0,VALID,57.8249,VALID,0,VALID,26.9769,VALID,182,VALID,5.12695,
2012-07-29, 00:34:04,VALID,999.52,VALID,0,VALID,57.7562,VALID,0,VALID,26.9985,VALID,193,VALID,4.61445,
2012-07-29, 00:35:04,VALID,999.472,VALID,0,VALID,57.6036,VALID,0,VALID,26.9789,VALID,172,VALID,5.36797,
2012-07-29, 00:36:04,VALID,999.495,VALID,0,VALID,57.5807,VALID,0,VALID,26.9985,VALID,173,VALID,6.67969,
2012-07-29, 00:37:04,VALID,999.366,VALID,0,VALID,57.3366,VALID,0,VALID,27.016,VALID,175,VALID,7.31914,
2012-07-29, 00:38:04,VALID,999.451,VALID,0,VALID,57.4205,VALID,0,VALID,27.0375,VALID,171,VALID,6.4875,
2012-07-29, 00:39:04,VALID,999.424,VALID,0,VALID,57.5502,VALID,0,VALID,26.9964,VALID,177,VALID,6.13828,
2012-07-29, 00:40:04,VALID,999.468,VALID,0,VALID,57.6647,VALID,0,VALID,27.018,VALID,175,VALID,6.79063,
2012-07-29, 00:41:04,VALID,999.44,VALID,0,VALID,57.7715,VALID,0,VALID,26.9378,VALID,177,VALID,4.22813,
2012-07-29, 00:42:04,VALID,999.471,VALID,0,VALID,57.7104,VALID,0,VALID,26.9008,VALID,184,VALID,5.79336,
2012-07-29, 00:43:04,VALID,999.521,VALID,0,VALID,57.7104,VALID,0,VALID,26.9789,VALID,195,VALID,4.00781,
2012-07-29, 00:44:04,VALID,999.499,VALID,0,VALID,58.0004,VALID,0.104696,VALID,26.9378,VALID,201,VALID,4.70469,
2012-07-29, 00:45:04,VALID,999.499,VALID,0,VALID,58.0004,VALID,0,VALID,26.9378,VALID,198,VALID,4.63867,
2012-07-29, 00:46:04,VALID,999.457,VALID,0,VALID,57.4282,VALID,0,VALID,26.9769,VALID,189,VALID,4.5793,
2012-07-29, 00:47:04,VALID,999.547,VALID,0,VALID,57.4205,VALID,0,VALID,27.016,VALID,198,VALID,4.15469,
2012-07-29, 00:48:04,VALID,999.469,VALID,0,VALID,57.535,VALID,0,VALID,27.016,VALID,195,VALID,4.73281,
2012-07-29, 00:49:04,VALID,999.467,VALID,0,VALID,57.4129,VALID,0,VALID,26.9769,VALID,186,VALID,4.40508,
2012-07-29, 00:50:04,VALID,999.436,VALID,0,VALID,57.5655,VALID,0,VALID,27.0005,VALID,216,VALID,3.59492,
2012-07-29, 00:51:04,VALID,999.413,VALID,0,VALID,57.5579,VALID,0,VALID,26.9789,VALID,198,VALID,4.82227,
2012-07-29, 00:52:04,VALID,999.289,VALID,0,VALID,57.6113,VALID,0,VALID,27.0005,VALID,190,VALID,6.37266,
2012-07-29, 00:53:04,VALID,999.372,VALID,0,VALID,57.2145,VALID,0,VALID,27.018,VALID,192,VALID,5.88945,
2012-07-29, 00:54:04,VALID,999.355,VALID,0,VALID,57.2298,VALID,0,VALID,27.018,VALID,210,VALID,4.61641,
2012-07-29, 00:55:04,VALID,999.41,VALID,0,VALID,57.7867,VALID,0,VALID,26.9789,VALID,203,VALID,3.83086,
2012-07-29, 00:56:04,VALID,999.393,VALID,0,VALID,57.596,VALID,0,VALID,26.9594,VALID,195,VALID,2.88125,
2012-07-29, 00:57:04,VALID,999.43,VALID,0,VALID,58.1606,VALID,0,VALID,26.8813,VALID,192,VALID,3.22773,
2012-07-29, 00:58:04,VALID,999.384,VALID,0,VALID,57.5121,VALID,0,VALID,26.9615,VALID,192,VALID,4.80156,
2012-07-29, 00:59:04,VALID,999.353,VALID,0,VALID,57.7944,VALID,0,VALID,26.9008,VALID,196,VALID,3.76797,
2012-07-29, 01:00:04,VALID,999.37,VALID,0,VALID,57.8554,VALID,0,VALID,26.8813,VALID,210,VALID,3.45078,
2012-07-29, 01:01:04,VALID,999.331,VALID,0,VALID,57.6342,VALID,0,VALID,26.9008,VALID,210,VALID,4.4,
2012-07-29, 01:02:04,VALID,999.351,VALID,0,VALID,57.8478,VALID,0,VALID,26.8813,VALID,198,VALID,3.7125,
2012-07-29, 01:03:04,VALID,999.292,VALID,0,VALID,56.9704,VALID,0,VALID,26.9399,VALID,181,VALID,3.97578,
2012-07-29, 01:04:04,VALID,999.308,VALID,0,VALID,56.9399,VALID,0,VALID,27.0005,VALID,190,VALID,3.51406,
2012-07-29, 01:05:04,VALID,999.273,VALID,0,VALID,56.2913,VALID,0,VALID,26.9964,VALID,191,VALID,4.13672,
2012-07-29, 01:06:04,VALID,999.264,VALID,0,VALID,56.2303,VALID,0,VALID,27.0745,VALID,198,VALID,4.82148,
2012-07-29, 01:07:04,VALID,999.197,VALID,0,VALID,56.4287,VALID,0,VALID,27.0571,VALID,192,VALID,3.48359,
2012-07-29, 01:08:04,VALID,999.248,VALID,0,VALID,56.4439,VALID,0,VALID,27.0745,VALID,183,VALID,4.73047,
2012-07-29, 01:09:04,VALID,999.195,VALID,0,VALID,57.1306,VALID,0,VALID,27.0375,VALID,190,VALID,3.91289,
2012-07-29, 01:10:04,VALID,999.186,VALID,0,VALID,56.8864,VALID,0,VALID,26.9964,VALID,176,VALID,5.84961,
2012-07-29, 01:11:04,VALID,999.173,VALID,0,VALID,57.1001,VALID,0,VALID,27.018,VALID,176,VALID,5.11758,
2012-07-29, 01:12:04,VALID,999.197,VALID,0,VALID,57.3137,VALID,0,VALID,26.9769,VALID,187,VALID,3.66094,
2012-07-29, 01:13:04,VALID,999.192,VALID,0,VALID,56.9704,VALID,0,VALID,26.9574,VALID,194,VALID,5.62109,
2012-07-29, 01:14:04,VALID,999.209,VALID,0,VALID,56.9551,VALID,0,VALID,27.0375,VALID,188,VALID,4.35742,
2012-07-29, 01:15:04,VALID,999.215,VALID,0,VALID,56.9551,VALID,0,VALID,27.018,VALID,192,VALID,3.91289,
2012-07-29, 01:16:04,VALID,999.188,VALID,0,VALID,56.8636,VALID,0,VALID,26.9964,VALID,187,VALID,3.74453,
2012-07-29, 01:17:04,VALID,999.225,VALID,0,VALID,57.2145,VALID,0,VALID,26.9789,VALID,202,VALID,2.84141,
2012-07-29, 01:18:04,VALID,999.21,VALID,0,VALID,57.4129,VALID,0,VALID,26.9204,VALID,175,VALID,3.64805,
2012-07-29, 01:19:04,VALID,999.212,VALID,0,VALID,57.3519,VALID,0,VALID,26.9204,VALID,196,VALID,2.50664,
2012-07-29, 01:20:04,VALID,999.159,VALID,0,VALID,57.657,VALID,0,VALID,26.8813,VALID,179,VALID,3.15469,
2012-07-29, 01:21:04,VALID,999.143,VALID,0,VALID,57.5731,VALID,0,VALID,26.8813,VALID,187,VALID,3.62539,
2012-07-29, 01:22:04,VALID,999.139,VALID,0,VALID,57.6723,VALID,0,VALID,26.8813,VALID,210,VALID,2.67695,
2012-07-29, 01:23:04,VALID,999.128,VALID,0,VALID,57.6647,VALID,0,VALID,26.8597,VALID,187,VALID,3.77773,
2012-07-29, 01:24:04,VALID,999.098,VALID,0,VALID,57.3442,VALID,0,VALID,26.8618,VALID,194,VALID,3.18008,
2012-07-29, 01:25:04,VALID,999.119,VALID,0,VALID,57.3442,VALID,0,VALID,26.8793,VALID,175,VALID,4.27031,
2012-07-29, 01:26:04,VALID,999.117,VALID,0,VALID,56.7873,VALID,0,VALID,26.9378,VALID,195,VALID,4.92539,
2012-07-29, 01:27:04,VALID,999.11,VALID,0,VALID,57.1306,VALID,0,VALID,26.9594,VALID,201,VALID,3.42188,
2012-07-29, 01:28:04,VALID,999.138,VALID,0,VALID,57.2984,VALID,0,VALID,26.9008,VALID,194,VALID,3.77148,
2012-07-29, 01:29:04,VALID,999.078,VALID,0,VALID,57.3824,VALID,0,VALID,26.8813,VALID,181,VALID,2.96016,
2012-07-29, 01:30:04,VALID,999.066,VALID,0,VALID,57.4205,VALID,0,VALID,26.8402,VALID,203,VALID,2.99766,
2012-07-29, 01:31:04,VALID,999.097,VALID,0,VALID,57.3747,VALID,0,VALID,26.8402,VALID,171,VALID,2.67734,
2012-07-29, 01:32:04,VALID,999.088,VALID,0,VALID,57.5731,VALID,0.104696,VALID,26.8402,VALID,204,VALID,3.01172,
2012-07-29, 01:33:04,VALID,999.037,VALID,0,VALID,57.6418,VALID,0,VALID,26.8422,VALID,206,VALID,3.52266,
2012-07-29, 01:34:04,VALID,999.032,VALID,0,VALID,58.2064,VALID,0,VALID,26.8207,VALID,200,VALID,1.72344,
2012-07-29, 01:35:04,VALID,999,VALID,0,VALID,57.4663,VALID,0,VALID,26.8011,VALID,191,VALID,4.81719,
2012-07-29, 01:36:04,VALID,999.056,VALID,0,VALID,57.3824,VALID,0,VALID,26.8402,VALID,197,VALID,3.65,
2012-07-29, 01:37:04,VALID,999.021,VALID,0,VALID,57.3519,VALID,0,VALID,26.8813,VALID,191,VALID,3.30078,
2012-07-29, 01:38:04,VALID,999.031,VALID,0,VALID,57.4129,VALID,0,VALID,26.8793,VALID,201,VALID,2.69531,
2012-07-29, 01:39:04,VALID,998.993,VALID,0,VALID,57.5121,VALID,0,VALID,26.8618,VALID,193,VALID,3.05508,
2012-07-29, 01:40:04,VALID,998.985,VALID,0,VALID,57.1916,VALID,0,VALID,26.8618,VALID,183,VALID,3.11445,
2012-07-29, 01:41:04,VALID,998.97,VALID,0,VALID,57.5044,VALID,0,VALID,26.8618,VALID,210,VALID,2.09453,
2012-07-29, 01:42:04,VALID,998.977,VALID,0,VALID,57.3213,VALID,0,VALID,26.8618,VALID,215,VALID,3.12227,
2012-07-29, 01:43:04,VALID,998.924,VALID,0,VALID,57.3442,VALID,0,VALID,26.8813,VALID,209,VALID,3.57734,
2012-07-29, 01:44:04,VALID,998.926,VALID,0,VALID,57.0238,VALID,0,VALID,26.9204,VALID,194,VALID,4.45664,
2012-07-29, 01:45:04,VALID,998.955,VALID,0,VALID,56.9933,VALID,0,VALID,26.9594,VALID,200,VALID,3.72578,
2012-07-29, 01:46:04,VALID,998.913,VALID,0,VALID,56.7033,VALID,0,VALID,26.9594,VALID,197,VALID,4.00703,
2012-07-29, 01:47:04,VALID,998.906,VALID,0,VALID,56.7186,VALID,0,VALID,26.9789,VALID,178,VALID,4.90195,
2012-07-29, 01:48:04,VALID,998.927,VALID,0,VALID,56.9399,VALID,0,VALID,26.9594,VALID,201,VALID,2.7957,
2012-07-29, 01:49:04,VALID,998.857,VALID,0,VALID,56.8483,VALID,0,VALID,26.9204,VALID,186,VALID,2.84883,
2012-07-29, 01:50:04,VALID,998.781,VALID,0,VALID,56.5736,VALID,0,VALID,26.9594,VALID,190,VALID,5.01445,
2012-07-29, 01:51:04,VALID,998.773,VALID,0,VALID,56.3295,VALID,0,VALID,27.0375,VALID,180,VALID,4.35195,
2012-07-29, 01:52:04,VALID,998.779,VALID,0,VALID,56.4516,VALID,0,VALID,27.018,VALID,180,VALID,4.72266,
2012-07-29, 01:53:04,VALID,998.791,VALID,0,VALID,56.5126,VALID,0,VALID,27.0375,VALID,182,VALID,4.79727,
2012-07-29, 01:54:04,VALID,998.767,VALID,0,VALID,56.566,VALID,0,VALID,26.9985,VALID,195,VALID,3.75117,
2012-07-29, 01:55:04,VALID,998.776,VALID,0,VALID,56.6576,VALID,0,VALID,27.0005,VALID,204,VALID,4.7,
2012-07-29, 01:56:04,VALID,998.799,VALID,0,VALID,56.7567,VALID,0,VALID,27.0375,VALID,210,VALID,2.57852,
2012-07-29, 01:57:04,VALID,998.811,VALID,0,VALID,56.4592,VALID,0,VALID,27.0571,VALID,191,VALID,4.25586,
2012-07-29, 01:58:04,VALID,998.785,VALID,0,VALID,56.3066,VALID,0,VALID,26.9985,VALID,191,VALID,2.80469,
2012-07-29, 01:59:04,VALID,998.819,VALID,0,VALID,56.833,VALID,0,VALID,26.9789,VALID,199,VALID,4.03633,
2012-07-29, 02:00:04,VALID,998.772,VALID,0,VALID,56.627,VALID,0,VALID,26.9789,VALID,202,VALID,4.12617,
2012-07-29, 02:01:04,VALID,998.769,VALID,0,VALID,56.6804,VALID,0,VALID,26.9985,VALID,200,VALID,3.39766,
2012-07-29, 02:02:04,VALID,998.8,VALID,0,VALID,56.299,VALID,0,VALID,27.018,VALID,194,VALID,4.77461,
2012-07-29, 02:03:04,VALID,998.772,VALID,0,VALID,56.6652,VALID,0,VALID,27.018,VALID,198,VALID,2.79141,
2012-07-29, 02:04:04,VALID,998.786,VALID,0,VALID,56.5584,VALID,0,VALID,26.9789,VALID,183,VALID,4.42266,
2012-07-29, 02:05:04,VALID,998.725,VALID,0,VALID,56.8178,VALID,0,VALID,26.9789,VALID,170,VALID,5.11758,
2012-07-29, 02:06:04,VALID,998.75,VALID,0,VALID,56.6347,VALID,0,VALID,26.9789,VALID,195,VALID,5.21211,
2012-07-29, 02:07:04,VALID,998.789,VALID,0,VALID,56.9627,VALID,0,VALID,26.9594,VALID,196,VALID,3.85781,
2012-07-29, 02:08:04,VALID,998.738,VALID,0,VALID,56.7796,VALID,0,VALID,26.9789,VALID,181,VALID,4.16992,
2012-07-29, 02:09:04,VALID,998.778,VALID,0,VALID,57.1916,VALID,0,VALID,26.9574,VALID,201,VALID,4.63438,
2012-07-29, 02:10:04,VALID,998.722,VALID,0,VALID,57.3595,VALID,0,VALID,26.9204,VALID,187,VALID,3.11523,
2012-07-29, 02:11:04,VALID,998.757,VALID,0,VALID,57.4358,VALID,0,VALID,26.8813,VALID,198,VALID,3.69062,
2012-07-29, 02:12:04,VALID,998.751,VALID,0,VALID,57.4053,VALID,0,VALID,26.9008,VALID,193,VALID,4.47813,
2012-07-29, 02:13:04,VALID,998.758,VALID,0,VALID,57.4587,VALID,0,VALID,26.9204,VALID,188,VALID,3.50156,
2012-07-29, 02:14:04,VALID,998.764,VALID,0,VALID,57.6952,VALID,0,VALID,26.9029,VALID,181,VALID,4.01367,
2012-07-29, 02:15:04,VALID,998.796,VALID,0,VALID,57.3366,VALID,0,VALID,26.8833,VALID,189,VALID,3.29648,
2012-07-29, 02:16:04,VALID,998.747,VALID,0,VALID,57.4205,VALID,0,VALID,26.9204,VALID,178,VALID,4.3875,
2012-07-29, 02:17:04,VALID,998.671,VALID,0,VALID,56.8483,VALID,0,VALID,26.9399,VALID,176,VALID,5.27969,
2012-07-29, 02:18:04,VALID,998.735,VALID,0,VALID,57.0162,VALID,0,VALID,26.9985,VALID,206,VALID,4.6332,
2012-07-29, 02:19:04,VALID,998.69,VALID,0,VALID,56.9322,VALID,0,VALID,26.9985,VALID,196,VALID,3.25938,
2012-07-29, 02:20:04,VALID,998.715,VALID,0,VALID,56.7491,VALID,0,VALID,27.018,VALID,195,VALID,3.87852,
2012-07-29, 02:21:04,VALID,998.717,VALID,0,VALID,56.8025,VALID,0,VALID,27.018,VALID,200,VALID,4.38906,
2012-07-29, 02:22:04,VALID,998.734,VALID,0,VALID,56.3905,VALID,0,VALID,27.0571,VALID,189,VALID,4.32617,
2012-07-29, 02:23:04,VALID,998.787,VALID,0,VALID,56.4592,VALID,0,VALID,27.0571,VALID,189,VALID,3.2,
2012-07-29, 02:24:04,VALID,998.79,VALID,0,VALID,56.7415,VALID,0,VALID,27.018,VALID,193,VALID,3.04141,
2012-07-29, 02:25:04,VALID,998.788,VALID,0,VALID,57.1459,VALID,0,VALID,26.9594,VALID,185,VALID,2.65313,
2012-07-29, 02:26:04,VALID,998.757,VALID,0,VALID,57.4892,VALID,0,VALID,26.9399,VALID,222,VALID,2.72773,
2012-07-29, 02:27:04,VALID,998.679,VALID,0,VALID,56.9704,VALID,0,VALID,26.9008,VALID,204,VALID,4.18984,
2012-07-29, 02:28:04,VALID,998.775,VALID,0,VALID,56.9475,VALID,0,VALID,26.9594,VALID,194,VALID,5.26563,
2012-07-29, 02:29:04,VALID,998.77,VALID,0,VALID,56.7262,VALID,0,VALID,27.018,VALID,181,VALID,4.29258,
2012-07-29, 02:30:04,VALID,998.758,VALID,0,VALID,56.6194,VALID,0,VALID,26.9964,VALID,201,VALID,3.74258,
2012-07-29, 02:31:04,VALID,998.818,VALID,0,VALID,56.6118,VALID,0,VALID,27.0375,VALID,195,VALID,3.36836,
2012-07-29, 02:32:04,VALID,998.825,VALID,0,VALID,57.0009,VALID,0,VALID,27.018,VALID,182,VALID,4.18086,
2012-07-29, 02:33:04,VALID,998.773,VALID,0,VALID,56.627,VALID,0,VALID,26.9789,VALID,173,VALID,5.6832,
2012-07-29, 02:34:04,VALID,998.784,VALID,0,VALID,56.0167,VALID,0,VALID,27.0571,VALID,175,VALID,6.63086,
2012-07-29, 02:35:04,VALID,998.789,VALID,0,VALID,56.1159,VALID,0,VALID,27.0766,VALID,180,VALID,6.04961,
2012-07-29, 02:36:04,VALID,998.833,VALID,0,VALID,55.9633,VALID,0,VALID,27.1352,VALID,196,VALID,4.025,
2012-07-29, 02:37:04,VALID,998.852,VALID,0,VALID,56.0853,VALID,0,VALID,27.0941,VALID,184,VALID,4.70547,
2012-07-29, 02:38:04,VALID,998.83,VALID,0,VALID,56.2303,VALID,0,VALID,27.0961,VALID,177,VALID,3.43203,
2012-07-29, 02:39:04,VALID,998.856,VALID,0,VALID,56.8636,VALID,0,VALID,27.0571,VALID,169,VALID,6.98086,
2012-07-29, 02:40:04,VALID,998.838,VALID,0,VALID,56.5126,VALID,0,VALID,27.0375,VALID,181,VALID,5.69023,
2012-07-29, 02:41:04,VALID,998.852,VALID,0,VALID,57.039,VALID,0.104696,VALID,27.0375,VALID,168,VALID,4.87305,
2012-07-29, 02:42:04,VALID,998.871,VALID,0,VALID,56.917,VALID,0,VALID,26.9964,VALID,185,VALID,4.00547,
2012-07-29, 02:43:04,VALID,998.693,VALID,0,VALID,56.8941,VALID,0,VALID,27.018,VALID,165,VALID,6.45352,
2012-07-29, 02:44:04,VALID,998.828,VALID,0,VALID,57.2832,VALID,0,VALID,26.9769,VALID,168,VALID,5.36211,
2012-07-29, 02:45:04,VALID,998.824,VALID,0,VALID,57.0543,VALID,0,VALID,26.9985,VALID,184,VALID,4.02891,
2012-07-29, 02:46:04,VALID,998.807,VALID,0,VALID,57.3213,VALID,0,VALID,26.9399,VALID,189,VALID,3.5125,
2012-07-29, 02:47:04,VALID,998.777,VALID,0,VALID,57.3824,VALID,0,VALID,26.9594,VALID,183,VALID,4.3043,
2012-07-29, 02:48:04,VALID,998.766,VALID,0,VALID,57.4205,VALID,0.104696,VALID,26.9204,VALID,159,VALID,4.40039,
2012-07-29, 02:49:04,VALID,998.755,VALID,0,VALID,57.2832,VALID,0,VALID,26.8793,VALID,183,VALID,6.24805,
2012-07-29, 02:50:04,VALID,998.773,VALID,0,VALID,57.3824,VALID,0,VALID,26.9378,VALID,171,VALID,5.47305,
2012-07-29, 02:51:04,VALID,998.828,VALID,0,VALID,57.5807,VALID,0,VALID,26.9399,VALID,182,VALID,3.98242,
2012-07-29, 02:52:04,VALID,998.789,VALID,0,VALID,57.6647,VALID,0,VALID,26.8793,VALID,171,VALID,4.33437,
2012-07-29, 02:53:04,VALID,998.822,VALID,0,VALID,57.4968,VALID,0,VALID,26.9183,VALID,190,VALID,4.54297,
2012-07-29, 02:54:04,VALID,998.84,VALID,0,VALID,57.5807,VALID,0,VALID,26.8988,VALID,191,VALID,3.77969,
2012-07-29, 02:55:04,VALID,998.869,VALID,0,VALID,57.6418,VALID,0,VALID,26.8988,VALID,197,VALID,3.32617,
2012-07-29, 02:56:04,VALID,998.829,VALID,0,VALID,57.245,VALID,0,VALID,26.9378,VALID,195,VALID,3.33242,
2012-07-29, 02:57:04,VALID,998.822,VALID,0,VALID,57.1306,VALID,0,VALID,26.9789,VALID,177,VALID,3.89375,
2012-07-29, 02:58:04,VALID,998.855,VALID,0,VALID,57.4587,VALID,0,VALID,26.9378,VALID,178,VALID,3.70781,
2012-07-29, 02:59:04,VALID,998.876,VALID,0,VALID,57.4053,VALID,0,VALID,26.9594,VALID,191,VALID,3.79531,
2012-07-29, 03:00:04,VALID,998.896,VALID,0,VALID,57.4129,VALID,0,VALID,26.9399,VALID,181,VALID,3.78516,
2012-07-29, 03:01:04,VALID,998.892,VALID,0,VALID,57.7333,VALID,0,VALID,26.9789,VALID,187,VALID,2.81094,
2012-07-29, 03:02:04,VALID,998.934,VALID,0,VALID,57.6418,VALID,0,VALID,26.9204,VALID,190,VALID,2.52187,
2012-07-29, 03:03:04,VALID,998.879,VALID,0,VALID,57.5426,VALID,0,VALID,26.9204,VALID,176,VALID,5.25156,
2012-07-29, 03:04:04,VALID,998.901,VALID,0,VALID,57.6342,VALID,0,VALID,26.9594,VALID,175,VALID,4.45742,
2012-07-29, 03:05:04,VALID,998.907,VALID,0,VALID,57.6036,VALID,0,VALID,26.9183,VALID,194,VALID,3.48359,
2012-07-29, 03:06:04,VALID,998.849,VALID,0,VALID,57.2756,VALID,0,VALID,26.9574,VALID,187,VALID,4.72383,
2012-07-29, 03:07:04,VALID,998.939,VALID,0,VALID,57.3366,VALID,0,VALID,27.018,VALID,178,VALID,3.25234,
2012-07-29, 03:08:04,VALID,998.924,VALID,0,VALID,57.6189,VALID,0,VALID,26.9985,VALID,184,VALID,3.73438,
2012-07-29, 03:09:04,VALID,998.976,VALID,0,VALID,57.8249,VALID,0,VALID,26.9378,VALID,186,VALID,3.71289,
2012-07-29, 03:10:04,VALID,998.987,VALID,0,VALID,57.596,VALID,0,VALID,26.9985,VALID,186,VALID,4.25664,
2012-07-29, 03:11:04,VALID,998.987,VALID,0,VALID,58.0004,VALID,0,VALID,26.9789,VALID,194,VALID,2.85625,
2012-07-29, 03:12:04,VALID,998.956,VALID,0,VALID,58.1301,VALID,0,VALID,26.9399,VALID,189,VALID,3.70586,
2012-07-29, 03:13:04,VALID,998.979,VALID,0,VALID,58.1224,VALID,0,VALID,26.9183,VALID,214,VALID,2.0457,
2012-07-29, 03:14:04,VALID,998.993,VALID,0,VALID,58.1224,VALID,0,VALID,26.8793,VALID,207,VALID,4.26563,
2012-07-29, 03:15:04,VALID,999.001,VALID,0,VALID,58.0996,VALID,0,VALID,26.8813,VALID,178,VALID,2.71797,
2012-07-29, 03:16:04,VALID,998.984,VALID,0,VALID,58.2445,VALID,0,VALID,26.8422,VALID,161,VALID,2.875,
2012-07-29, 03:17:04,VALID,999.012,VALID,0,VALID,58.4505,VALID,0,VALID,26.8422,VALID,205,VALID,2.28984,
2012-07-29, 03:18:04,VALID,998.979,VALID,0,VALID,58.5421,VALID,0,VALID,26.8227,VALID,224,VALID,1.35508,
2012-07-29, 03:19:04,VALID,998.983,VALID,0,VALID,58.6565,VALID,0,VALID,26.7621,VALID,208,VALID,0.866797,
2012-07-29, 03:20:04,VALID,999.036,VALID,0,VALID,59.1372,VALID,0,VALID,26.7446,VALID,207,VALID,0.901953,
2012-07-29, 03:21:04,VALID,999.03,VALID,0,VALID,59.1067,VALID,0,VALID,26.6644,VALID,186,VALID,1.87734,
2012-07-29, 03:22:04,VALID,998.991,VALID,0,VALID,59.2745,VALID,0,VALID,26.6665,VALID,198,VALID,1.35547,
2012-07-29, 03:23:04,VALID,999.049,VALID,0,VALID,59.4347,VALID,0,VALID,26.6469,VALID,187,VALID,1.5168,
2012-07-29, 03:24:04,VALID,999.042,VALID,0,VALID,59.3432,VALID,0,VALID,26.6644,VALID,184,VALID,2.77813,
2012-07-29, 03:25:04,VALID,999.082,VALID,0,VALID,59.038,VALID,0,VALID,26.7251,VALID,188,VALID,2.28984,
2012-07-29, 03:26:04,VALID,999.088,VALID,0,VALID,59.1601,VALID,0,VALID,26.7641,VALID,167,VALID,4.48164,
2012-07-29, 03:27:04,VALID,999.061,VALID,0,VALID,58.771,VALID,0,VALID,26.7641,VALID,170,VALID,3.84727,
2012-07-29, 03:28:04,VALID,999.146,VALID,0,VALID,58.893,VALID,0,VALID,26.8032,VALID,200,VALID,1.9875,
2012-07-29, 03:29:04,VALID,999.119,VALID,0,VALID,58.9541,VALID,0,VALID,26.7641,VALID,211,VALID,3.57539,
2012-07-29, 03:30:04,VALID,999.127,VALID,0,VALID,58.9922,VALID,0,VALID,26.7251,VALID,183,VALID,2.89961,
2012-07-29, 03:31:04,VALID,999.161,VALID,0,VALID,58.8778,VALID,0,VALID,26.7446,VALID,172,VALID,2.81055,
2012-07-29, 03:32:04,VALID,999.162,VALID,0,VALID,59.3584,VALID,0,VALID,26.7621,VALID,172,VALID,1.40703,
2012-07-29, 03:33:04,VALID,999.204,VALID,0,VALID,59.2745,VALID,0,VALID,26.7446,VALID,185,VALID,2.11797,
2012-07-29, 03:34:04,VALID,999.187,VALID,0,VALID,59.0914,VALID,0,VALID,26.7446,VALID,175,VALID,2.68945,
2012-07-29, 03:35:04,VALID,999.161,VALID,0,VALID,59.2516,VALID,0,VALID,26.7836,VALID,201,VALID,2.42617,
2012-07-29, 03:36:04,VALID,999.151,VALID,0,VALID,59.3127,VALID,0,VALID,26.7836,VALID,217,VALID,2.48984,
2012-07-29, 03:37:04,VALID,999.191,VALID,0,VALID,59.2364,VALID,0,VALID,26.7446,VALID,206,VALID,2.48398,
2012-07-29, 03:38:04,VALID,999.139,VALID,0,VALID,59.6484,VALID,0,VALID,26.7446,VALID,179,VALID,5.41836,
2012-07-29, 03:39:04,VALID,999.151,VALID,0,VALID,59.5492,VALID,0,VALID,26.7251,VALID,200,VALID,2.77734,
2012-07-29, 03:40:04,VALID,999.159,VALID,0,VALID,59.5721,VALID,0,VALID,26.7836,VALID,191,VALID,3.04727,
2012-07-29, 03:41:04,VALID,999.101,VALID,0,VALID,59.3966,VALID,0,VALID,26.8032,VALID,156,VALID,3.35469,
2012-07-29, 03:42:04,VALID,999.11,VALID,0,VALID,59.5873,VALID,0,VALID,26.7621,VALID,192,VALID,4.64453,
2012-07-29, 03:43:04,VALID,999.149,VALID,0,VALID,59.305,VALID,0,VALID,26.8011,VALID,187,VALID,3.02695,
2012-07-29, 03:44:04,VALID,999.154,VALID,0,VALID,59.6102,VALID,0,VALID,26.8227,VALID,176,VALID,2.97344,
2012-07-29, 03:45:04,VALID,999.156,VALID,0,VALID,59.717,VALID,0,VALID,26.8032,VALID,195,VALID,2.71367,
2012-07-29, 03:46:04,VALID,999.118,VALID,0,VALID,59.244,VALID,0,VALID,26.8011,VALID,188,VALID,2.62891,